Weather History for Elizabeth City, NC

Change the Weather History Date:

Tuesday, March 12, 2013

  Actual Average Record
Temperature  
Mean Temperature 59 °F 49 °F  
Max Temperature 68 °F 59 °F 89 °F (1990)
Min Temperature 50 °F 38 °F 22 °F (1934)
Degree Days  
Heating Degree Days 6 16  
Month to date heating degree days 224 210  
Since 1 July heating degree days 2233 2682  
Cooling Degree Days 0 0  
Month to date cooling degree days 0 0  
Year to date cooling degree days 5 2  
Growing Degree Days 10 (Base 50)    
Moisture  
Dew Point 57 °F    
Average Humidity 86    
Maximum Humidity 100    
Minimum Humidity 72    
Precipitation  
Precipitation 0.53 in 0.12 in 3.17 in (1968)
Month to date precipitation 1.29 1.32  
Year to date precipitation 6.34 7.76  
Snow  
Snow 0.00 in - 0.00 in (2002)
Month to date snowfall T  
Since 1 July snowfall T  
Snow Depth 0.00 in    
Sea Level Pressure  
Sea Level Pressure 29.86 in    
Wind  
Wind Speed 10 mph (South)    
Max Wind Speed 17 mph    
Max Gust Speed 23 mph    
Visibility 8 miles    
Events Rain    
T = Trace of Precipitation, MM = Missing Value Source: NWS Daily Summary

Daily Weather History Graph

Daily Weather History Graph

Search for Another Location

Airport:

Trip Planner

Search our weather history database for the weather conditions in past years. The results will help you decide how hot, cold, wet, or windy it might be!

Date:

Astronomy

Mar. 12, 2013 Rise Set
Actual Time 7:19 AM EDT 7:09 PM EDT
Civil Twilight 6:53 AM EDT 7:35 PM EDT
Nautical Twilight 6:24 AM EDT 8:05 PM EDT
Astronomical Twilight 5:54 AM EDT 8:35 PM EDT
Moon 7:27 AM EDT (3/12) 8:18 PM EDT (3/12)
Length of Visible Light 12h 41m
Length of Day
11h 50m
New Moon, 1% of the Moon is Illuminated
Mar 12
New Moon
Mar 19
First Quarter
Mar 27
Full
Apr 3
Last Quarter
Apr 10
New

Hourly Weather History & Observations

Time (EDT) Temp. Dew Point Humidity Pressure Visibility Wind Dir Wind Speed Gust Speed Precip Events Conditions
12:54 AM 57.9 °F 50.0 °F 75% 30.02 in 10.0 mi SSE 9.2 mph - N/A   Overcast
1:54 AM 59.0 °F 51.1 °F 75% 30.02 in 10.0 mi South 9.2 mph - N/A   Mostly Cloudy
2:54 AM 57.9 °F 51.1 °F 78% 30.00 in 10.0 mi SSE 8.1 mph - N/A   Mostly Cloudy
4:54 AM 57.9 °F 52.0 °F 81% 29.95 in 10.0 mi SSE 8.1 mph - N/A   Mostly Cloudy
5:54 AM 60.1 °F 52.0 °F 75% 29.94 in 10.0 mi SE 9.2 mph - N/A   Overcast
6:54 AM 57.9 °F 54.0 °F 87% 29.94 in 4.0 mi South 8.1 mph - 0.04 in Rain Heavy Rain
7:54 AM 57.9 °F 55.9 °F 93% 29.92 in 9.0 mi SSE 10.4 mph 18.4 mph 0.08 in Rain Light Rain
8:17 AM 59.0 °F 57.2 °F 94% 29.92 in 4.0 mi South 9.2 mph - 0.03 in Rain Light Rain
8:39 AM 59.0 °F 57.2 °F 94% 29.91 in 9.0 mi South 10.4 mph - 0.03 in Rain Light Rain
8:54 AM 59.0 °F 57.0 °F 93% 29.91 in 2.5 mi SSE 9.2 mph - 0.09 in Rain Light Rain
8:58 AM 59.0 °F 57.2 °F 94% 29.91 in 4.0 mi SSE 9.2 mph - 0.01 in Rain Light Rain
9:30 AM 59.0 °F 57.2 °F 94% 29.91 in 6.0 mi South 11.5 mph 19.6 mph 0.05 in Rain Light Rain
9:33 AM 59.0 °F 57.2 °F 94% 29.91 in 6.0 mi South 12.7 mph 19.6 mph 0.06 in Rain Light Rain
9:54 AM 60.1 °F 57.9 °F 93% 29.90 in 8.0 mi SSE 12.7 mph - 0.08 in Rain Light Rain
10:54 AM 60.1 °F 57.9 °F 93% 29.89 in 4.0 mi South 13.8 mph 21.9 mph 0.07 in Rain Light Rain
11:08 AM 60.8 °F 59.0 °F 94% 29.87 in 2.0 mi SSE 18.4 mph 25.3 mph 0.07 in Rain Heavy Rain
11:15 AM 60.8 °F 59.0 °F 94% 29.86 in 3.0 mi SSE 15.0 mph 24.2 mph 0.08 in Rain Light Rain
11:54 AM 61.0 °F 60.1 °F 97% 29.87 in 10.0 mi South 13.8 mph 23.0 mph 0.10 in Rain Light Rain
12:54 PM 61.0 °F 60.1 °F 97% 29.86 in 3.0 mi South 12.7 mph 19.6 mph 0.06 in Rain Light Rain
1:54 PM 62.1 °F 61.0 °F 96% 29.84 in 10.0 mi SSE 11.5 mph 16.1 mph 0.00 in   Overcast
2:54 PM 64.9 °F 62.1 °F 90% 29.80 in 10.0 mi South 10.4 mph 18.4 mph N/A   Overcast
3:29 PM 66.2 °F 62.6 °F 88% 29.78 in 10.0 mi South 10.4 mph - 0.00 in   Overcast
3:50 PM 66.2 °F 62.6 °F 88% 29.77 in 10.0 mi South 11.5 mph 17.3 mph 0.00 in   Overcast
3:54 PM 66.0 °F 62.1 °F 87% 29.77 in 10.0 mi South 12.7 mph 18.4 mph 0.00 in   Overcast
4:22 PM 66.2 °F 62.6 °F 88% 29.76 in 10.0 mi South 5.8 mph 16.1 mph N/A   Overcast
4:34 PM 66.2 °F 62.6 °F 88% 29.75 in 10.0 mi SSW 15.0 mph - N/A   Overcast
4:54 PM 66.9 °F 62.1 °F 84% 29.75 in 10.0 mi South 13.8 mph - N/A   Mostly Cloudy
5:54 PM 64.9 °F 62.1 °F 90% 29.75 in 10.0 mi South 8.1 mph - 0.00 in   Overcast
6:54 PM 63.0 °F 60.1 °F 90% 29.77 in 10.0 mi South 5.8 mph - N/A   Partly Cloudy
7:54 PM 62.1 °F 60.1 °F 93% 29.78 in 10.0 mi SSE 5.8 mph - N/A   Overcast
8:17 PM 60.8 °F 60.8 °F 100% 29.80 in 6.0 mi NNW 9.2 mph - 0.01 in Rain Light Rain
8:38 PM 62.6 °F 60.8 °F 94% 29.81 in 10.0 mi WSW 3.5 mph - 0.01 in   Overcast
8:54 PM 60.1 °F 57.9 °F 93% 29.81 in 10.0 mi Calm Calm - 0.01 in   Overcast
9:54 PM 57.0 °F 54.0 °F 89% 29.83 in 10.0 mi North 17.3 mph - N/A   Scattered Clouds
10:25 PM 55.4 °F 53.6 °F 94% 29.84 in 10.0 mi North 15.0 mph - N/A   Scattered Clouds
10:33 PM 55.4 °F 53.6 °F 94% 29.85 in 10.0 mi North 11.5 mph - N/A   Mostly Cloudy
10:54 PM 54.0 °F 51.1 °F 90% 29.86 in 10.0 mi North 11.5 mph - N/A   Mostly Cloudy
11:02 PM 53.6 °F 51.8 °F 94% 29.86 in 10.0 mi NNW 12.7 mph - N/A   Partly Cloudy
11:54 PM 52.0 °F 46.0 °F 80% 29.88 in 10.0 mi North 12.7 mph - N/A   Scattered Clouds